Location: Caltech
(34.1382°N, 118.1253°W)
Time: 22:33:05
(UTC-07:00)

Tiros 1 despin weight - All Passes

Search period start: 31 May 2016 00:00
Search period end: 10 June 2016 00:00
Orbit: 595 x 645 km, 48.2° (Epoch: 31 May)

Date Brightness Start Highest point End Pass type
(mag) Time Alt. Az. Time Alt. Az. Time Alt. Az.
31 May - 00:22:09 10° WNW 00:25:51 22° NNW 00:29:32 10° NNE visible
31 May - 02:06:22 10° NNW 02:08:50 14° N 02:11:18 10° NNE visible
31 May - 03:48:09 10° NNW 03:51:49 22° NNE 03:55:25 10° ENE visible
31 May - 05:29:19 10° NW 05:33:56 88° NE 05:38:27 10° SE daylight
31 May - 07:12:52 10° W 07:15:00 13° SW 07:17:05 10° SSW daylight
31 May - 21:15:25 10° SSW 21:19:34 32° SE 21:23:44 10° ENE visible
31 May - 22:56:35 10° WSW 23:01:05 45° NNW 23:05:36 10° NE visible
01 Jun - 00:40:35 10° NW 00:43:38 17° NNW 00:46:40 10° NNE visible
01 Jun - 02:24:00 10° NNW 02:26:45 15° N 02:29:28 10° NE visible
01 Jun - 04:05:13 10° NW 04:09:27 34° NNE 04:13:37 10° E visible
01 Jun - 05:46:47 10° WNW 05:51:08 44° SW 05:55:25 10° SSE daylight
01 Jun - 21:32:03 10° SW 21:36:43 67° SE 21:41:24 10° ENE visible
01 Jun - 23:14:36 10° W 23:18:39 27° NNW 23:22:41 10° NE visible
02 Jun - 00:58:56 10° NW 01:01:31 14° N 01:04:05 10° NNE visible
02 Jun - 02:41:15 10° NNW 02:44:35 19° NNE 02:47:53 10° ENE visible
02 Jun - 04:22:20 10° NW 04:26:55 61° NE 04:31:25 10° ESE visible
02 Jun - 06:04:49 10° W 06:08:12 20° SW 06:11:31 10° S daylight
02 Jun - 20:09:11 10° S 20:12:42 21° SE 20:16:15 10° E daylight
02 Jun - 21:49:22 10° WSW 21:54:00 62° NW 21:58:41 10° NE visible
02 Jun - 23:32:58 10° WNW 23:36:21 19° NNW 23:39:45 10° NNE visible
03 Jun - 01:16:52 10° NNW 01:19:25 14° N 01:21:59 10° NE visible
03 Jun - 02:58:20 10° NW 03:02:18 27° NNE 03:06:13 10° E visible
03 Jun - 04:39:38 10° WNW 04:44:13 67° SW 04:48:43 10° SE visible
03 Jun - 20:25:19 10° SSW 20:29:46 45° SE 20:34:16 10° ENE visible
03 Jun - 22:07:10 10° W 22:11:29 35° NNW 22:15:48 10° NE visible
03 Jun - 23:51:23 10° NW 23:54:12 15° N 23:57:00 10° NNE visible
04 Jun - 01:34:17 10° NNW 01:37:19 17° NNE 01:40:18 10° NE visible
04 Jun - 03:15:24 10° NW 03:19:52 44° NNE 03:24:15 10° ESE visible
04 Jun - 04:57:18 10° WNW 05:01:22 31° SW 05:05:21 10° SSE visible
04 Jun - 19:03:30 10° SSE 19:05:53 14° SE 19:08:17 10° E daylight
04 Jun - 20:42:17 10° SW 20:46:59 88° NNW 20:51:43 10° NE visible
04 Jun - 22:25:21 10° WNW 22:29:07 23° NNW 22:32:52 10° NNE visible
05 Jun - 00:09:34 10° NNW 00:12:06 14° N 00:14:37 10° NNE visible
05 Jun - 01:51:26 10° NNW 01:55:06 22° NNE 01:58:43 10° ENE visible
05 Jun - 03:32:35 10° NW 03:37:15 84° NE 03:41:50 10° SE visible
05 Jun - 05:15:56 10° W 05:18:21 14° SW 05:20:45 10° SSW daylight
05 Jun - 19:18:49 10° SSW 19:22:53 30° SE 19:26:58 10° ENE daylight
05 Jun - 20:59:50 10° WSW 21:04:22 46° NNW 21:08:55 10° NE visible
05 Jun - 22:43:46 10° NW 22:46:54 17° NNW 22:50:00 10° NNE visible
06 Jun - 00:27:15 10° NNW 00:30:01 15° N 00:32:45 10° NE visible
06 Jun - 02:08:30 10° NW 02:12:45 33° NNE 02:16:56 10° E visible
06 Jun - 03:50:02 10° WNW 03:54:28 47° SW 03:58:51 10° SSE visible
06 Jun - 19:35:23 10° SW 19:40:00 64° SE 19:44:40 10° ENE daylight
06 Jun - 21:17:50 10° W 21:21:54 28° NNW 21:25:59 10° NE visible
06 Jun - 23:02:07 10° NW 23:04:46 15° N 23:07:24 10° NNE visible
07 Jun - 00:44:31 10° NNW 00:47:51 19° NNE 00:51:10 10° ENE visible
07 Jun - 02:25:36 10° NW 02:30:14 59° NE 02:34:46 10° ESE visible
07 Jun - 04:07:59 10° W 04:11:32 22° SW 04:15:02 10° S visible
07 Jun - 18:12:38 10° S 18:16:01 20° SE 18:19:26 10° E daylight
07 Jun - 19:52:39 10° WSW 19:57:17 65° NW 20:01:59 10° NE daylight
07 Jun - 21:36:09 10° WNW 21:39:37 20° NNW 21:43:04 10° NNE visible
07 Jun - 23:20:05 10° NNW 23:22:41 14° N 23:25:16 10° NE visible
08 Jun - 01:01:36 10° NW 01:05:35 26° NNE 01:09:31 10° E visible
08 Jun - 02:42:53 10° WNW 02:47:33 71° SW 02:52:06 10° SE visible
08 Jun - 18:28:41 10° SSW 18:33:03 42° SE 18:37:30 10° ENE daylight
08 Jun - 20:10:25 10° W 20:14:45 36° NNW 20:19:06 10° NE daylight
08 Jun - 21:54:34 10° NW 21:57:26 16° N 22:00:17 10° NNE visible
08 Jun - 23:37:32 10° NNW 23:40:34 17° NNE 23:43:34 10° NE visible
09 Jun - 01:18:40 10° NW 01:23:09 43° NNE 01:27:34 10° ESE visible
09 Jun - 03:00:31 10° WNW 03:04:41 33° SW 03:08:47 10° SSE night (unlit)
09 Jun - 17:07:06 10° SSE 17:09:12 13° SE 17:11:19 10° E daylight
09 Jun - 18:45:36 10° SW 18:50:15 88° SSE 18:54:59 10° NE daylight
09 Jun - 20:28:34 10° WNW 20:32:22 24° NNW 20:36:10 10° NNE visible
09 Jun - 22:12:47 10° NW 22:15:20 14° N 22:17:53 10° NNE visible
